GFSMA_850_dewp_189.txt.gz
Dewpoint
-6 -7 -8 -10 -12 -14 -15 -18 -19 -20 -20 -19 -19 -17 -15 -11 -7 -5 -2 0 1 3 5 5 5 5 5 4 4 5 5 6 6 5 -4 4 11 11 11 11 11 11 11
-6 -7 -9 -11 -14 -16 -18 -19 -20 -20 -20 -20 -17 -13 -10 -5 -2 -1 -0 -1 -1 -1 -0 2 3 3 3 3 3 4 4 4 5 5 6 3 6 9 11 11 11 11 11
-6 -8 -11 -13 -16 -18 -19 -19 -20 -20 -19 -18 -14 -7 -3 -1 1 0 -2 -2 -3 -3 -2 -2 -0 0 1 1 2 1 3 3 4 4 5 5 5 3 6 10 11 11 11
-8 -10 -13 -16 -18 -19 -19 -19 -20 -20 -19 -16 -10 -4 -0 1 1 -1 -2 -3 -4 -4 -3 -2 -2 -2 -1 -1 -0 1 1 2 2 2 3 4 4 4 5 2 8 11 11
-9 -12 -15 -18 -19 -19 -20 -20 -21 -20 -19 -10 -4 -0 2 1 -0 -1 -1 -4 -4 -4 -4 -3 -2 -2 -1 -1 -1 -0 1 0 1 2 2 2 3 3 3 2 1 2 9
-12 -14 -17 -19 -20 -19 -18 -19 -21 -22 -18 -9 -2 1 2 1 0 -0 -2 -4 -4 -3 -3 -2 -2 -2 -2 -2 -2 -2 -0 0 1 1 1 2 2 3 3 2 2 2 3
-15 -17 -19 -21 -20 -18 -17 -20 -22 -22 -13 -5 -4 1 1 0 -0 -1 -3 -4 -4 -3 -3 -3 -3 -3 -3 -2 -2 -2 -1 -0 -0 0 1 0 1 2 2 3 2 1 2
-18 -19 -21 -21 -19 -18 -19 -21 -22 -21 -12 -3 -1 -1 -1 -2 -2 -3 -4 -4 -3 -3 -4 -4 -4 -4 -4 -3 -3 -3 -2 -2 -1 -1 -0 -0 0 1 1 2 1 1 1
-21 -21 -22 -21 -19 -18 -19 -22 -24 -22 -15 -5 -1 -2 -1 -1 -2 -3 -4 -3 -3 -4 -5 -5 -4 -4 -4 -4 -4 -4 -4 -3 -3 -2 -2 -1 -1 -0 -1 -0 0 1 1
-22 -22 -22 -20 -19 -19 -21 -24 -26 -27 -24 -18 -8 -2 -6 -6 -3 -4 -3 -2 -3 -4 -5 -6 -6 -5 -4 -4 -5 -5 -5 -5 -4 -4 -3 -3 -2 -1 -1 -0 0 0 1
-22 -22 -21 -21 -20 -21 -23 -24 -27 -27 -28 -23 -18 -16 -11 -9 -8 -7 -4 -3 -3 -4 -5 -8 -7 -7 -6 -6 -5 -5 -5 -5 -5 -5 -5 -4 -3 -3 -2 -1 -0 -0 1
-22 -22 -21 -20 -20 -22 -24 -25 -27 -27 -27 -26 -23 -17 -14 -12 -12 -10 -5 -4 -3 -4 -5 -9 -15 -9 -9 -8 -6 -6 -6 -6 -7 -8 -6 -5 -5 -4 -4 -3 -2 -1 -1
-22 -22 -21 -20 -21 -23 -24 -25 -24 -24 -24 -25 -25 -22 -20 -19 -18 -11 -8 -8 -4 -4 -4 -11 -17 -20 -12 -10 -11 -7 -11 -9 -12 -17 -16 -11 -14 -10 -7 -5 -3 -2 -1
-20 -20 -20 -20 -21 -23 -24 -23 -22 -23 -23 -23 -25 -24 -23 -21 -18 -13 -11 -10 -6 -4 -5 -11 -16 -22 -24 -19 -16 -14 -14 -13 -20 -22 -23 -19 -20 -22 -18 -12 -5 -4 -3
-18 -19 -19 -21 -23 -23 -22 -21 -21 -22 -22 -21 -21 -22 -22 -22 -21 -20 -18 -15 -14 -9 -7 -13 -18 -22 -25 -20 -18 -15 -17 -17 -21 -16 -16 -18 -19 -25 -27 -23 -15 -5 -4
-17 -19 -19 -22 -23 -22 -21 -19 -20 -20 -20 -21 -20 -20 -20 -20 -21 -20 -19 -18 -18 -17 -14 -15 -18 -24 -25 -20 -18 -17 -16 -18 -21 -20 -17 -18 -17 -17 -20 -24 -26 -18 -8
-17 -19 -20 -22 -21 -21 -20 -19 -19 -20 -20 -21 -20 -20 -21 -21 -22 -22 -20 -19 -19 -19 -19 -17 -19 -27 -24 -20 -19 -18 -17 -15 -18 -16 -17 -21 -18 -16 -17 -18 -19 -22 -16
-17 -19 -21 -21 -21 -20 -19 -19 -20 -19 -20 -20 -20 -20 -22 -23 -23 -23 -21 -21 -21 -21 -21 -21 -25 -29 -27 -24 -22 -19 -18 -15 -14 -14 -17 -22 -20 -16 -14 -15 -15 -15 -15
-17 -17 -19 -21 -21 -21 -21 -21 -21 -21 -21 -21 -22 -23 -24 -24 -24 -24 -23 -23 -22 -22 -22 -23 -26 -27 -28 -27 -25 -23 -21 -17 -14 -14 -19 -21 -23 -17 -15 -13 -14 -15 -12
-15 -16 -17 -19 -21 -22 -24 -23 -23 -23 -23 -23 -23 -24 -24 -24 -24 -25 -24 -22 -22 -21 -21 -24 -26 -26 -25 -26 -26 -27 -25 -21 -18 -15 -21 -24 -22 -16 -15 -15 -12 -12 -15
-14 -17 -19 -20 -22 -22 -24 -24 -24 -24 -24 -24 -23 -23 -24 -25 -25 -25 -24 -22 -21 -21 -21 -22 -22 -22 -22 -22 -23 -25 -27 -26 -24 -19 -24 -28 -23 -18 -16 -17 -13 -12 -13
-14 -17 -22 -23 -24 -22 -24 -24 -24 -24 -24 -23 -23 -24 -25 -25 -25 -25 -24 -23 -22 -21 -20 -19 -19 -19 -20 -22 -23 -25 -26 -26 -27 -22 -27 -27 -20 -15 -15 -16 -13 -13 -15
-16 -17 -23 -26 -24 -22 -24 -23 -22 -22 -22 -22 -23 -25 -25 -25 -25 -25 -25 -25 -24 -22 -20 -19 -18 -19 -21 -22 -25 -27 -26 -27 -26 -24 -25 -26 -25 -17 -15 -14 -15 -21 -22
-6 -18 -22 -25 -23 -22 -23 -20 -18 -18 -19 -20 -21 -24 -25 -25 -24 -24 -25 -24 -24 -22 -20 -19 -19 -19 -21 -25 -27 -29 -27 -28 -27 -23 -23 -25 -25 -25 -16 -15 -18 -25 -25
-13 -20 -24 -22 -20 -19 -19 -17 -16 -16 -18 -19 -21 -23 -24 -24 -24 -24 -24 -24 -23 -21 -19 -19 -19 -20 -21 -26 -30 -29 -29 -30 -29 -24 -21 -22 -22 -23 -15 -15 -21 -23 -23
-5 -26 -23 -16 -15 -15 -15 -14 -13 -15 -16 -18 -20 -21 -22 -24 -24 -23 -24 -24 -23 -21 -20 -20 -20 -23 -27 -29 -28 -30 -30 -30 -27 -22 -18 -19 -20 -23 -22 -20 -22 -21 -23

GFSMA_850_dewp_192.txt.gz
Dewpoint
-2 -5 -6 -8 -10 -12 -14 -16 -17 -18 -18 -19 -18 -14 -12 -9 -7 -5 -3 1 1 2 3 4 4 4 4 4 4 4 4 5 5 5 5 5 5 8 10 10 10 11 11
-4 -5 -6 -8 -11 -14 -16 -18 -19 -19 -18 -17 -15 -10 -7 -4 -3 -2 -2 -3 -4 -4 -3 -1 3 3 3 2 2 3 3 3 4 4 4 5 5 5 7 10 10 10 11
-5 -5 -7 -10 -13 -16 -18 -19 -19 -19 -18 -15 -11 -5 -3 -2 -1 -2 -3 -5 -5 -6 -5 -3 -3 -2 1 2 2 2 2 2 3 3 3 4 4 4 4 3 8 10 10
-5 -6 -8 -12 -15 -17 -19 -19 -19 -18 -17 -12 -9 -4 -1 -0 -1 -2 -3 -4 -6 -6 -6 -4 -3 -3 -2 -1 0 2 2 2 2 2 2 2 2 3 3 4 3 2 9
-6 -7 -10 -14 -17 -18 -19 -20 -18 -17 -17 -10 -4 -1 1 1 -1 -1 -2 -5 -6 -6 -5 -3 -3 -3 -2 -2 -1 1 1 1 1 1 1 1 1 2 2 3 3 4 3
-7 -9 -13 -16 -18 -19 -19 -19 -18 -19 -15 -10 -3 0 1 -0 -1 -1 -3 -5 -5 -5 -4 -3 -3 -3 -2 -2 -3 -2 0 1 0 0 0 1 0 1 1 2 2 3 3
-9 -11 -15 -18 -19 -19 -17 -18 -19 -19 -12 -5 -3 -0 -0 -1 -1 -2 -4 -5 -5 -4 -4 -4 -4 -4 -4 -3 -3 -3 -2 -1 -0 -0 -0 -0 -0 0 1 1 1 2 2
-11 -14 -17 -19 -20 -18 -17 -18 -19 -17 -11 -4 -2 -3 -2 -3 -2 -3 -4 -4 -4 -5 -5 -5 -5 -5 -5 -5 -4 -4 -4 -3 -2 -1 -1 -1 -1 -0 0 0 1 1 1
-14 -17 -19 -20 -19 -17 -17 -18 -20 -18 -14 -7 -4 -3 -2 -2 -3 -3 -4 -4 -5 -6 -6 -7 -7 -7 -6 -5 -5 -5 -5 -5 -5 -4 -3 -3 -2 -2 -1 -0 -0 0 1
-17 -19 -20 -20 -19 -18 -17 -20 -21 -20 -15 -10 -5 -2 -3 -5 -4 -5 -3 -4 -5 -6 -8 -9 -10 -10 -9 -7 -5 -5 -6 -5 -5 -5 -4 -4 -4 -3 -2 -2 -1 -1 -1
-19 -20 -20 -20 -19 -17 -18 -20 -22 -25 -24 -16 -9 -7 -3 -6 -7 -7 -4 -4 -4 -7 -10 -15 -15 -10 -11 -13 -14 -10 -18 -9 -10 -9 -9 -6 -6 -5 -4 -3 -2 -2 -2
-20 -20 -20 -19 -18 -17 -17 -20 -24 -26 -25 -22 -19 -17 -14 -12 -10 -9 -7 -4 -4 -5 -6 -12 -21 -18 -15 -14 -13 -15 -19 -22 -24 -23 -19 -18 -18 -12 -7 -5 -4 -4 -3
-20 -20 -20 -19 -17 -16 -19 -24 -25 -25 -25 -25 -24 -21 -18 -15 -15 -12 -9 -6 -4 -5 -6 -13 -20 -24 -22 -18 -21 -19 -20 -21 -24 -26 -22 -19 -21 -20 -16 -12 -8 -5 -4
-20 -20 -20 -18 -16 -18 -23 -24 -23 -23 -24 -25 -25 -23 -22 -20 -17 -11 -10 -13 -7 -6 -7 -15 -18 -22 -23 -20 -21 -18 -18 -22 -23 -23 -22 -18 -16 -18 -20 -21 -17 -10 -7
-20 -20 -19 -17 -17 -21 -23 -22 -22 -23 -23 -23 -23 -22 -19 -19 -16 -14 -14 -16 -16 -11 -12 -13 -17 -25 -22 -20 -21 -18 -17 -18 -20 -21 -22 -21 -16 -16 -18 -19 -19 -17 -18
-18 -19 -18 -18 -19 -22 -21 -23 -23 -23 -22 -21 -20 -20 -20 -21 -21 -20 -20 -20 -20 -20 -18 -17 -20 -25 -23 -22 -21 -19 -18 -16 -17 -16 -17 -22 -23 -19 -18 -18 -17 -15 -14
-16 -17 -18 -18 -20 -22 -23 -22 -22 -21 -21 -20 -19 -19 -20 -21 -22 -21 -21 -21 -22 -23 -21 -19 -23 -25 -23 -23 -21 -21 -20 -17 -16 -15 -17 -21 -24 -23 -18 -18 -19 -17 -14
-15 -17 -18 -19 -20 -21 -21 -20 -20 -20 -19 -20 -20 -20 -21 -22 -23 -22 -22 -23 -24 -23 -22 -21 -23 -23 -23 -23 -23 -22 -21 -19 -16 -16 -18 -23 -25 -23 -16 -17 -17 -17 -13
-14 -16 -17 -19 -20 -19 -19 -19 -18 -19 -20 -20 -20 -21 -23 -24 -24 -24 -24 -25 -24 -23 -21 -20 -20 -21 -22 -23 -24 -24 -23 -19 -17 -20 -21 -24 -26 -23 -18 -16 -15 -18 -13
-13 -16 -17 -18 -19 -18 -19 -19 -19 -19 -20 -21 -22 -23 -24 -25 -25 -25 -25 -24 -23 -21 -20 -19 -19 -20 -21 -21 -23 -24 -25 -24 -24 -21 -23 -27 -25 -19 -17 -18 -15 -16 -18
-14 -17 -17 -18 -19 -18 -19 -20 -20 -20 -22 -23 -23 -24 -25 -25 -25 -25 -25 -23 -23 -22 -20 -19 -19 -19 -20 -21 -21 -23 -25 -25 -24 -22 -25 -27 -24 -20 -19 -18 -20 -19 -23
-15 -15 -16 -18 -20 -20 -22 -22 -22 -23 -24 -24 -24 -24 -25 -25 -25 -25 -24 -25 -24 -23 -21 -20 -19 -19 -20 -21 -22 -24 -26 -26 -27 -24 -26 -27 -26 -23 -19 -18 -17 -21 -28
-12 -14 -17 -19 -20 -20 -22 -23 -25 -25 -24 -23 -23 -24 -25 -24 -24 -24 -25 -25 -25 -23 -22 -21 -19 -19 -21 -22 -24 -27 -27 -28 -29 -27 -26 -26 -26 -26 -21 -17 -17 -24 -26
-9 -14 -15 -6 -18 -19 -22 -24 -25 -24 -22 -23 -23 -24 -24 -24 -23 -23 -24 -25 -25 -23 -22 -21 -19 -20 -21 -25 -28 -29 -29 -31 -29 -26 -25 -26 -26 -26 -21 -17 -19 -23 -23
-10 -11 -4 -8 -20 -20 -23 -23 -22 -20 -20 -20 -21 -24 -24 -23 -23 -24 -23 -24 -24 -23 -22 -21 -20 -22 -25 -28 -32 -32 -31 -33 -33 -27 -24 -24 -24 -26 -24 -18 -24 -25 -22
-3 -4 -8 -21 -22 -22 -21 -20 -18 -17 -18 -19 -20 -23 -24 -24 -24 -24 -23 -24 -24 -22 -20 -20 -21 -25 -29 -32 -35 -35 -34 -33 -32 -26 -24 -23 -23 -24 -24 -22 -24 -24 -25

GFSMA_850_dewp_198.txt.gz
Dewpoint
5 2 1 -1 -2 -3 -9 -11 -11 -12 -12 -13 -10 -8 -2 5 5 2 2 5 3 -2 -5 -7 -0 3 4 1 1 1 1 4 4 4 3 3 4 3 3 2 5 8 9
3 5 6 6 2 -4 -8 -7 -9 -11 -7 -12 -11 -7 -4 -2 -1 -1 -2 -2 -4 -7 -8 -5 1 3 4 4 3 3 3 3 3 3 3 2 1 2 2 2 3 6 7
5 5 5 3 0 -6 -10 -8 -9 -12 -11 -7 -9 -5 -4 -3 -3 -4 -3 -5 -7 -8 -7 -5 -1 3 3 4 3 3 2 2 2 2 2 2 2 3 3 3 3 3 3
5 4 1 -3 -5 -9 -10 -10 -10 -7 -4 -1 -2 -0 -3 -3 -4 -5 -5 -4 -3 -4 -5 -5 -3 -2 2 3 3 2 2 2 1 1 2 1 2 2 2 2 2 2 1
3 2 -2 -4 -6 -10 -11 -11 -8 -3 -2 -1 0 0 -2 -1 -3 -4 -5 -6 -7 -4 -3 -3 -3 -3 -2 0 2 2 2 1 1 1 1 1 1 1 1 2 1 2 2
-0 -1 -2 -4 -8 -11 -13 -10 -5 -6 -5 -3 -1 -2 -1 -1 -2 -3 -5 -6 -7 -6 -3 -1 -1 -3 -3 -3 -2 1 1 1 1 0 0 0 1 1 1 1 1 1 1
-2 -2 -2 -5 -9 -10 -11 -12 -9 -4 -4 -5 -5 -2 -2 -2 -2 -2 -2 -3 -5 -5 -4 -3 -2 -2 -4 -4 -4 -3 -0 -0 -1 -1 -1 -0 0 0 0 1 1 1 1
-3 -3 -3 -6 -9 -13 -15 -15 -13 -5 -5 -6 -1 -1 -1 -1 -1 -2 -3 -4 -3 -3 -4 -4 -6 -5 -6 -6 -6 -6 -5 -3 -2 -2 -2 -1 -1 -1 -0 -0 -0 0 0
-3 -4 -4 -7 -11 -14 -14 -12 -13 -8 -8 -5 0 0 -1 -2 -1 -2 -2 -3 -3 -3 -3 -6 -9 -8 -9 -8 -6 -9 -9 -8 -9 -6 -4 -3 -2 -2 -1 -1 -1 -1 -0
-3 -4 -5 -9 -12 -13 -15 -14 -9 -9 -6 -6 -3 -2 -1 -2 -2 -2 -3 -2 -3 -4 -4 -4 -4 -5 -12 -4 -9 -25 -26 -23 -23 -17 -11 -7 -5 -3 -3 -2 -2 -2 -1
-3 -4 -7 -11 -13 -16 -16 -12 -10 -8 -5 -1 -2 -4 -3 -3 -2 -4 -3 -3 -4 -6 -7 -6 -4 -4 -5 -5 -5 -23 -25 -25 -25 -21 -15 -14 -12 -10 -6 -4 -3 -3 -3
-4 -5 -9 -13 -16 -16 -17 -16 -14 -13 -7 -3 -0 -1 -1 -2 -2 -3 -3 -4 -4 -5 -8 -9 -6 -5 -5 -11 -20 -22 -24 -24 -24 -23 -21 -21 -20 -17 -11 -6 -9 -9 -4
-5 -6 -11 -14 -15 -16 -17 -17 -15 -15 -13 -8 -9 -4 -2 -2 -3 -3 -3 -3 -4 -4 -5 -8 -10 -7 -9 -19 -20 -20 -23 -23 -22 -21 -20 -20 -19 -18 -11 -7 -9 -15 -14
-6 -8 -12 -15 -16 -17 -18 -18 -18 -18 -18 -16 -17 -14 -9 -10 -9 -3 -3 -3 -3 -4 -4 -5 -11 -10 -12 -21 -22 -19 -17 -21 -20 -19 -20 -19 -17 -19 -20 -17 -16 -19 -21
-7 -10 -14 -16 -16 -16 -18 -18 -19 -21 -23 -23 -22 -22 -14 -17 -13 -4 -2 -3 -5 -6 -6 -7 -9 -19 -13 -18 -21 -8 -8 -20 -20 -20 -20 -20 -21 -21 -21 -21 -19 -21 -21
-9 -13 -15 -15 -16 -17 -18 -19 -21 -23 -23 -23 -23 -22 -20 -19 -16 -6 -1 -2 -4 -6 -6 -8 -10 -17 -21 -17 -21 -9 -16 -18 -18 -21 -21 -22 -22 -21 -22 -22 -21 -21 -21
-11 -13 -15 -16 -16 -16 -18 -20 -22 -23 -23 -23 -23 -23 -21 -15 -7 -4 -5 -8 -8 -6 -7 -10 -17 -23 -19 -17 -16 -12 -14 -10 -12 -21 -21 -22 -23 -23 -23 -23 -24 -23 -23
-11 -10 -10 -13 -16 -16 -18 -20 -22 -22 -23 -22 -22 -21 -19 -14 -10 -11 -9 -9 -13 -13 -14 -19 -16 -19 -15 -19 -16 -12 -17 -15 -10 -21 -22 -23 -24 -24 -25 -25 -26 -28 -27
-7 -8 -14 -15 -15 -17 -19 -20 -21 -22 -21 -21 -21 -20 -20 -15 -16 -16 -16 -16 -18 -15 -17 -21 -19 -16 -21 -18 -14 -15 -13 -10 -16 -22 -22 -23 -25 -26 -26 -27 -29 -32 -33
-2 -11 -14 -14 -16 -17 -18 -19 -20 -21 -21 -19 -18 -18 -20 -22 -22 -22 -23 -24 -24 -21 -19 -20 -20 -20 -20 -21 -20 -13 -10 -12 -12 -17 -21 -25 -25 -25 -24 -25 -30 -32 -34
-10 -13 -15 -15 -16 -16 -17 -18 -19 -19 -18 -17 -17 -19 -21 -22 -23 -23 -24 -25 -24 -23 -21 -20 -20 -20 -20 -20 -20 -22 -20 -13 -22 -23 -16 -21 -11 -13 -12 -12 -22 -31 -34
-12 -13 -15 -15 -16 -16 -16 -18 -18 -16 -15 -16 -17 -20 -22 -23 -24 -25 -25 -25 -25 -23 -21 -17 -16 -17 -19 -20 -21 -22 -14 -9 -8 -18 -26 -14 -27 -14 -16 -23 -27 -31 -34
-12 -13 -15 -15 -15 -16 -17 -16 -16 -15 -15 -16 -19 -22 -22 -24 -26 -25 -25 -25 -25 -24 -22 -13 -19 -18 -20 -20 -20 -18 -20 -10 -9 -12 -15 -10 -12 -11 -14 -14 -25 -29 -33
-11 -13 -14 -14 -15 -17 -16 -17 -16 -16 -17 -17 -14 -16 -22 -24 -24 -24 -24 -25 -25 -24 -22 -20 -19 -18 -19 -20 -21 -21 -17 -15 -13 -12 -16 -13 -11 -11 -12 -12 -16 -23 -31
-11 -12 -14 -15 -16 -17 -17 -17 -12 -17 -19 -21 -20 -16 -15 -13 -23 -24 -22 -20 -24 -25 -24 -23 -21 -20 -20 -21 -23 -21 -18 -18 -14 -11 -22 -14 -11 -12 -12 -12 -13 -15 -17
-10 -12 -8 -9 -4 -6 -18 -19 -20 -21 -21 -21 -16 -15 -16 -22 -23 -24 -21 -19 -23 -24 -24 -23 -22 -21 -21 -22 -23 -27 -29 -15 -14 -12 -13 -21 -12 -13 -12 -12 -13 -13 -13

GFSMA_850_dewp_201.txt.gz
Dewpoint
10 9 8 6 -3 -3 -2 -5 -10 -4 -2 6 6 6 6 7 6 8 7 6 2 -0 4 5 5 6 6 5 5 5 5 4 4 3 -0 -1 -3 -4 -4 -4 -2 -2 3
10 10 7 3 2 1 -1 -6 -9 -4 5 5 5 6 6 6 5 4 4 5 2 -3 -6 0 5 5 4 3 3 4 4 4 4 4 3 2 1 0 -0 -0 -1 1 1
10 7 3 5 4 2 -1 0 1 5 3 4 4 4 3 4 4 3 1 -4 -6 -7 -10 -6 -1 2 4 3 3 3 2 3 3 3 2 2 1 1 3 3 2 2 1
8 2 4 5 5 1 2 4 3 4 2 3 1 2 2 1 -1 1 1 1 -1 -7 -7 -7 -6 -1 3 3 3 3 2 2 2 1 2 1 2 2 2 2 2 2 3
6 7 4 2 2 3 3 4 4 3 2 1 1 0 1 1 -0 -0 -2 -3 -0 -0 -7 -5 -4 -4 -1 2 2 2 2 1 2 1 1 2 2 2 1 2 2 2 2
6 5 3 2 -1 -1 3 4 4 3 2 1 -1 1 1 0 -0 -2 -2 -2 -3 -0 1 0 -4 -4 -3 -2 1 1 1 1 1 1 1 2 1 1 1 1 1 1 1
7 4 3 1 -2 1 3 3 4 3 -2 -6 -1 1 1 0 0 -1 -1 -1 -0 0 -0 0 -0 -1 -5 -4 -4 -0 1 1 0 -1 -0 -0 1 0 0 0 0 1 1
4 2 2 1 -2 1 2 3 0 1 1 -3 0 0 0 -0 -0 -1 -0 -0 -1 -1 -1 -2 -2 -4 -5 -7 -6 -7 -6 -4 -4 -5 -4 -4 -1 -0 -0 -0 -0 1 1
3 1 1 1 -2 -1 -2 -1 2 1 0 -5 0 1 0 -0 -0 -0 -1 -1 -0 -1 -2 -6 -8 -8 -4 -3 -7 -10 -10 -12 -11 -5 -3 -4 -2 -1 -1 -1 -1 -1 -0
2 -0 -0 0 -3 -5 -5 -7 -2 -1 -0 0 2 2 2 1 -1 -1 -1 -1 -1 -1 -1 -2 -2 -7 -3 -7 -18 -26 -26 -26 -21 -15 -8 -5 -3 -3 -3 -2 -2 -3 -3
1 -0 -1 -1 -3 -7 -9 -7 -4 -2 0 2 2 2 2 -0 -1 -2 -2 -2 -3 -3 -3 -2 -3 -2 -4 -3 -9 -23 -25 -24 -23 -20 -16 -10 -5 -4 -3 -5 -4 -4 -3
2 0 -1 -2 -5 -8 -7 -6 -3 -4 1 2 1 1 1 -0 -1 -3 -3 -3 -3 -6 -7 -4 -3 -3 -3 -8 -17 -22 -24 -23 -23 -21 -20 -18 -14 -8 -5 -9 -11 -9 -6
2 -0 -2 -3 -6 -7 -3 -1 -1 2 2 2 1 1 0 -1 -2 -3 -2 -3 -3 -4 -6 -8 -5 -4 -5 -5 -10 -21 -22 -22 -21 -20 -19 -18 -19 -19 -18 -18 -18 -17 -11
2 -0 -3 -5 -6 -7 -4 -1 -1 -2 -1 2 2 1 0 -1 -2 -3 -2 -3 -3 -3 -4 -7 -7 -5 -8 -5 -13 -14 -16 -21 -20 -20 -20 -21 -21 -21 -21 -21 -21 -21 -19
3 -0 -3 -5 -6 -8 -10 -9 -5 -5 -10 -1 1 1 -1 -2 -3 -3 -2 -3 -3 -4 -4 -5 -8 -6 -6 -14 -9 -4 -11 -20 -20 -21 -21 -21 -21 -21 -21 -21 -22 -22 -21
2 -1 -2 -3 -7 -9 -12 -12 -11 -7 -12 -2 -1 -4 -3 -2 -2 -1 -2 -2 -3 -4 -5 -5 -7 -7 -6 -7 -13 -5 -14 -19 -20 -21 -21 -21 -22 -22 -22 -22 -23 -22 -21
1 -1 -2 -5 -8 -12 -13 -15 -15 -12 -7 -8 -4 -5 -3 -4 -3 -1 -1 -1 -2 -4 -4 -6 -7 -8 -8 -9 -16 -7 -11 -8 -14 -20 -21 -21 -23 -24 -24 -24 -26 -25 -25
0 -1 -4 -7 -10 -12 -10 -11 -5 -3 -13 -11 -6 -5 -5 -4 -2 -1 -2 -3 -5 -3 -6 -8 -7 -7 -7 -7 -7 -9 -13 -11 -10 -18 -22 -23 -24 -25 -25 -27 -29 -31 -31
-1 -3 -6 -7 -10 -13 -13 -13 -12 -14 -15 -7 -6 -5 -7 -5 -4 -4 -5 -5 -5 -6 -7 -9 -8 -7 -12 -10 -8 -8 -8 -9 -13 -18 -19 -18 -23 -23 -23 -28 -30 -35 -36
-2 -6 -10 -10 -11 -11 -8 -3 -12 -13 -15 -9 -13 -13 -13 -10 -10 -8 -6 -7 -7 -8 -8 -11 -11 -12 -16 -14 -7 -7 -8 -8 -12 -14 -13 -14 -13 -11 -11 -19 -29 -36 -36
-4 -2 -4 -3 -3 -2 -7 -11 -16 -16 -11 -16 -17 -15 -16 -13 -13 -13 -13 -16 -14 -13 -14 -17 -18 -18 -19 -20 -18 -16 -8 -9 -17 -21 -10 -10 -9 -9 -10 -11 -24 -34 -35
-4 -3 -1 -2 -9 -9 -13 -15 -15 -14 -16 -17 -16 -17 -19 -19 -20 -22 -23 -24 -20 -20 -18 -17 -15 -12 -18 -18 -19 -19 -13 -13 -8 -9 -15 -11 -16 -10 -11 -18 -23 -30 -33
-1 -2 -6 -8 -10 -10 -13 -14 -15 -16 -17 -16 -17 -18 -18 -19 -20 -23 -24 -24 -23 -17 -9 -7 -9 -16 -19 -18 -18 -20 -18 -11 -9 -9 -21 -9 -10 -10 -11 -12 -13 -17 -27
-3 -5 -10 -9 -7 -12 -14 -14 -15 -16 -16 -14 -15 -16 -19 -20 -23 -24 -24 -24 -22 -19 -15 -13 -12 -12 -17 -18 -14 -12 -11 -12 -12 -12 -19 -11 -9 -10 -11 -11 -12 -13 -17
-6 -9 -10 -5 -11 -13 -13 -14 -14 -14 -12 -12 -12 -17 -17 -21 -24 -24 -24 -22 -23 -23 -23 -22 -22 -21 -20 -19 -20 -20 -15 -16 -13 -11 -11 -26 -10 -11 -11 -12 -11 -12 -13
-4 -5 -5 -5 -10 -14 -13 -13 -16 -16 -13 -12 -12 -13 -17 -23 -25 -23 -20 -23 -25 -25 -24 -24 -23 -22 -20 -20 -21 -21 -19 -14 -14 -11 -11 -15 -11 -11 -11 -10 -11 -11 -12

GFSMA_850_dewp_204.txt.gz
Dewpoint
11 11 10 9 6 1 -7 -6 -6 0 1 -1 1 7 8 7 6 7 7 6 2 -0 -0 6 5 5 6 4 5 5 4 4 2 -1 -3 -1 -2 -2 -3 -5 -6 -6 -6
11 10 8 8 8 3 -3 -3 -3 -1 4 5 6 7 7 7 8 7 7 6 4 -1 -2 5 5 5 4 4 4 2 1 1 0 -0 -1 -2 -0 3 2 1 1 2 1
11 10 10 9 8 2 0 -1 -4 2 4 6 6 7 6 5 2 -0 6 6 3 -4 -8 -5 4 5 4 4 4 4 3 3 3 2 1 3 2 2 2 3 3 3 3
10 10 11 9 5 5 2 -2 3 6 5 4 5 5 5 2 1 -3 -3 -4 -6 -7 -10 -7 -2 3 4 4 3 3 2 2 2 1 2 2 2 2 2 2 3 3 3
10 10 10 5 5 4 1 1 5 5 5 4 3 2 1 1 -1 -2 -0 1 -1 -5 -7 -4 -2 -1 2 2 2 2 2 2 2 2 2 2 2 2 1 1 1 2 2
10 10 3 3 6 5 2 4 4 5 3 1 0 0 0 -1 -0 -3 -3 0 1 -1 -4 -4 -4 -3 -1 1 2 2 2 1 2 2 2 2 2 2 1 1 2 2 2
11 10 4 7 3 4 3 4 4 4 3 1 1 1 0 -0 -1 -4 -3 -3 -0 1 1 -0 -4 -5 -4 -4 -3 1 1 1 -2 -4 -6 -0 1 1 1 1 1 1 1
11 7 5 5 4 2 2 4 4 3 2 0 -0 -1 0 -0 0 -0 -1 -1 -0 -0 -1 -0 -1 -5 -7 -6 -5 -7 -7 -2 -1 -4 -5 -2 -1 0 0 0 -0 1 1
10 7 4 5 3 0 2 3 2 2 1 0 -3 -3 -0 0 -0 -0 -0 -0 -1 -2 -3 -3 -6 -6 -9 -14 -13 -11 -13 -16 -11 -3 -2 -2 -2 -1 -1 -2 -3 -4 -4
9 7 6 4 2 1 2 2 2 1 -3 -3 -3 2 -1 -1 -1 -0 -1 -0 -1 -1 -3 -5 -7 -5 -9 -14 -20 -24 -25 -25 -21 -6 -3 -3 -2 -2 -2 -2 -2 -3 -3
7 7 5 3 2 1 1 2 2 1 -4 -4 -5 2 2 1 -2 -1 -1 -1 -1 -1 -2 -2 -4 -6 -6 -13 -17 -24 -24 -23 -22 -17 -11 -4 -3 -3 -8 -7 -4 -4 -6
7 6 4 3 2 0 -0 1 1 1 -2 -4 -5 -0 1 -0 -1 -4 -2 -2 -2 -2 -2 -2 -2 -4 -6 -10 -17 -23 -23 -23 -23 -21 -21 -18 -14 -9 -16 -17 -6 -4 -4
6 6 4 3 1 0 0 -1 0 0 -1 -3 -2 -0 -1 0 -1 -3 -5 -3 -4 -5 -4 -3 -3 -3 -5 -11 -17 -21 -23 -23 -22 -21 -20 -20 -20 -18 -18 -18 -12 -6 -7
7 6 4 3 2 -0 -1 -1 0 -1 -0 1 1 1 0 -0 -1 -1 -3 -4 -4 -7 -7 -5 -4 -4 -6 -9 -13 -20 -19 -21 -21 -20 -20 -21 -21 -21 -21 -21 -21 -18 -16
6 6 4 2 2 -0 -1 -2 1 1 0 2 2 2 0 -0 -1 -1 -2 -4 -7 -3 -6 -7 -6 -5 -7 -8 -14 -19 -14 -20 -20 -21 -21 -21 -21 -22 -22 -22 -22 -21 -19
5 5 4 3 2 -0 -1 -1 1 1 1 2 2 1 0 -0 -2 -2 -2 -3 -5 -8 -4 -5 -8 -6 -7 -9 -7 -13 -10 -18 -18 -20 -21 -21 -21 -22 -22 -23 -23 -23 -20
5 4 4 2 2 1 0 1 1 2 1 2 2 1 -0 -3 -4 -2 -2 -3 -4 -4 -4 -5 -8 -7 -6 -9 -7 -7 -13 -14 -13 -18 -21 -21 -22 -22 -23 -23 -24 -26 -23
4 4 3 2 1 1 1 1 0 1 -0 0 -0 -2 -4 -5 -3 -2 -1 -2 -2 -2 -4 -6 -7 -7 -8 -10 -9 -10 -10 -10 -10 -15 -21 -21 -21 -23 -24 -25 -28 -31 -28
4 3 2 1 1 -0 -1 -1 -2 -2 -4 -5 -6 -3 -0 -5 -3 -1 -1 -1 -2 -3 -4 -5 -8 -9 -8 -6 -6 -11 -12 -11 -14 -16 -19 -19 -21 -22 -22 -23 -28 -34 -34
3 2 0 -0 -1 -1 -2 -3 -5 -7 -5 -2 -3 -4 -3 -2 -1 -1 -2 -4 -4 -4 -4 -10 -12 -7 -7 -7 -7 -8 -7 -9 -13 -16 -15 -14 -16 -18 -18 -21 -26 -34 -36
1 1 -0 -1 -1 -2 -3 -4 -6 -2 -1 -1 -6 -3 -3 -2 -2 -4 -4 -5 -6 -9 -11 -13 -11 -10 -12 -9 -8 -7 -8 -8 -10 -13 -14 -12 -16 -17 -18 -20 -22 -30 -35
-0 -0 -1 -1 -2 -3 -5 -8 -5 -1 0 -5 -3 -3 -5 -4 -5 -5 -5 -6 -9 -13 -13 -14 -15 -14 -14 -13 -14 -10 -10 -14 -16 -13 -14 -18 -17 -13 -14 -13 -18 -19 -23
-1 -2 -2 -3 -4 -4 -2 -1 -1 0 -7 -4 -5 -8 -8 -5 -7 -7 -7 -8 -10 -11 -14 -18 -19 -18 -19 -19 -18 -18 -16 -14 -8 -9 -11 -17 -10 -10 -10 -12 -14 -13 -14
-2 -3 -3 -2 -1 -1 -0 -1 -3 -12 -7 -10 -12 -14 -15 -14 -15 -16 -15 -16 -12 -9 -7 -10 -12 -18 -19 -18 -17 -13 -13 -10 -11 -13 -16 -11 -9 -9 -10 -12 -13 -12 -13
-3 -3 -3 -3 -2 -2 -3 -8 -13 -12 -13 -14 -15 -17 -18 -19 -19 -21 -23 -20 -15 -13 -9 -16 -19 -20 -20 -19 -18 -15 -15 -16 -11 -11 -11 -13 -12 -10 -12 -14 -12 -12 -12
-3 -3 -4 -3 -2 -9 -12 -12 -10 -14 -12 -11 -13 -15 -18 -20 -22 -23 -24 -24 -21 -19 -21 -20 -21 -21 -21 -20 -19 -19 -17 -17 -14 -12 -11 -13 -14 -14 -18 -10 -11 -12 -12